Location: Plainartige
(45.6866°N, 1.7993°E)
Time: 01:53:07
(UTC+00:00)

DUCHIFAT 1 - Visible Passes

Search period start: 26 June 2022 00:00
Search period end: 06 July 2022 00:00
Orbit: 579 x 598 km, 98.0° (Epoch: 25 June)

Date Brightness Start Highest point End Pass type
(mag) Time Alt. Az. Time Alt. Az. Time Alt. Az.
26 Jun ? 01:49:27 10° NE 01:53:08 29° E 01:56:23 12° SSE visible
26 Jun ? 03:24:58 10° N 03:28:32 27° WNW 03:32:05 10° SW visible
27 Jun ? 01:56:57 10° NNE 02:00:49 35° E 02:04:06 13° SSE visible
28 Jun ? 02:04:28 10° NNE 02:08:28 42° E 02:11:48 14° SSE visible
29 Jun ? 02:12:01 10° NNE 02:16:07 50° E 02:19:29 15° S visible
30 Jun ? 02:19:35 10° NNE 02:23:46 61° ESE 02:27:11 15° S visible
01 Jul ? 02:27:10 10° NNE 02:31:23 74° ESE 02:34:51 15° S visible
02 Jul ? 02:34:46 10° NNE 02:39:00 89° ESE 02:42:32 14° SSW visible
03 Jul ? 01:09:43 10° ENE 01:10:37 11° E 01:11:31 10° E visible
03 Jul ? 02:42:23 10° N 02:46:36 77° WNW 02:50:12 14° SSW visible
04 Jul ? 01:16:22 10° ENE 01:18:19 13° E 01:20:14 10° ESE visible
04 Jul ? 02:50:01 10° N 02:54:11 63° WNW 02:57:52 13° SSW visible
05 Jul ? 01:23:28 10° NE 01:25:59 15° E 01:28:30 10° SE visible
05 Jul ? 02:57:39 10° N 03:01:46 52° WNW 03:05:31 12° SSW visible
